STARLINK-34697 (64791 NORAD) Tracking and Keplerian Element Data

This shows tracking and keplerian element data for the satellite.

Feedback or suggestion? Click here.




ElementValue
Catalog64791
NameSTARLINK-34697
Epoch Orbit583
Epoch Day354.25003472
Epoch Year2025
RAAN334.6605
Inclination70.0001
Eccentricity0.0002692
Argument of Perigee269.35
Mean Anonmoly306.4075
Mean Motion14.9911012
Decay Rate0.00013731
L11 64791U 25150B 25354.25003472 .00013731 00000+0 11332-2 0 9998
L22 64791 70.0001 334.6605 0002692 269.3500 306.4075 14.99110120 5837



Live tracking and technical data element details for STARLINK-34697 (NORAD 64791). STARLINK-34697 can be tracked NOW for your location showing map with azimuth and elevation plus other details from your city location.







IsCatalogInMostPopularTable: catalog: 64791, numindb: 13
Update: records affected: 1



GetName: 64791 STARLINK-34697

Hit Count: updated at: Mon, 20 Apr 2026 08:58:29 GMT